Flag for Poland Weather past 2 weeks in Płock, Poland

Now
55 °F

Cool.


Feels Like: 55 °F
Forecast: 65 / 93 °F
Wind: 2 mph from Southeast

Location: Plock

Current Time: Aug 30, 2015 at 6:26:06 AM

Latest Report: Aug 30, 2015 at 5:00 AM


Visibility: 19 mi

Pressure: 30.23 "Hg

Humidity: 73%

Dew point: 47 °F

Location of PłockLocation

Historic Weather in Płock — Graph

°F

Płock temperature yesterday

Maximum temperature yesterday: 75 °F (at 4:00 PM)
Minimum temperature yesterday: 57 °F (at 7:00 AM)
Average temperature yesterday: 64 °F

Past Weeks' High & Low Weather Summary

 TemperatureHumidityPressure
High89 °F (Aug 15, 4:00 PM)96% (Aug 26, 1:00 AM)30.37 "Hg (Aug 26, 1:00 AM)
Low49 °F (Aug 21, 5:00 AM)24% (Aug 18, 5:00 PM)29.76 "Hg (Aug 15, 6:00 PM)
Average68 °F52%30.06 "Hg
* Reported Aug 15 4:00 AM — Aug 30 4:00 AM, Płock, Weather by CustomWeather, © 2015

Note: Actual official high and low records may vary slightly from our data, if they occured in-between our weather recording intervals... More about our weather records

Advertising

Płock weather history for previous 24 hours

 ConditionsComfort  
Time TempWeatherWind HumidityBarometerVisibility
4:00 AM
Sun, Aug 30
55 °FCool.2 mph74%30.24 "Hg19 mi
3:00 AM54 °FCool.2 mph77%30.25 "Hg14 mi
2:00 AM53 °FCool.2 mph81%30.27 "Hg13 mi
1:00 AM53 °FCool.2 mph82%30.27 "Hg11 mi
12:00 AM54 °FCool.1 mph82%30.27 "Hg9 mi
10:00 PM
Sat, Aug 29
58 °FCool.1 mph77%30.26 "Hg11 mi
9:00 PM60 °FCool.1 mph71%30.26 "Hg12 mi
7:00 PM72 °FMild.No wind43%30.24 "Hg22 mi
6:00 PM73 °FMild.2 mph40%30.25 "Hg22 mi
5:00 PM74 °FMild.1 mph39%30.25 "Hg25 mi
4:00 PM75 °FMild.2 mph39%30.25 "Hg25 mi
11:00 AM65 °FMild.5 mph61%30.28 "Hg19 mi
10:00 AM65 °FMild.3 mph67%30.27 "Hg19 mi
9:00 AM62 °FCool.3 mph79%30.26 "Hg11 mi
7:00 AM57 °FCool.2 mph90%30.23 "Hg7 mi
6:00 AM57 °FCool.1 mph90%30.22 "Hg8 mi
Weather by CustomWeather, © 2015

See weather overviewHow to use our weather pages